LEMUR-2-VLADIMIR (43746 NORAD) Tracking and Keplerian Element Data

This shows tracking and keplerian element data for the satellite.

Feedback or suggestion? Click here.




ElementValue
Catalog43746
NameLEMUR-2-VLADIMIR
Epoch Orbit459
Epoch Day363.12126791
Epoch Year2018
RAAN68.1718
Inclination97.4817
Eccentricity0.0020531
Argument of Perigee218.7008
Mean Anonmoly173.4511
Mean Motion15.26725122
Decay Rate1.889E-05
L11 43746U 18096AD 18363.12126791 .00001889 00000-0 74386-4 0 9996
L22 43746 97.4817 68.1718 0020531 218.7008 173.4511 15.26725122 4593

Live tracking and technical data element details for LEMUR-2-VLADIMIR (NORAD 43746). LEMUR-2-VLADIMIR can be tracked NOW for your location showing map with azimuth and elevation plus other details from your city location.

Track the satellite on the map from your city or location and see movement details for azimuth, elevation, latitude, longitude, range, height, and movement on the map or in text.







IsCatalogInMostPopularTable: catalog: 43746, numindb: 51
Update: records affected: 1



GetName: 43746 LEMUR-2-VLADIMIR

Hit Count: updated at: Wed, 24 Apr 2019 17:50:50 GMT